Location: Barruelo
(41.2448°N, 3.8231°W)
Time: 06:11:55
(UTC+00:00)

SOZ - Pass Details

Date: 16 March 2026
Orbit: 299 x 12047 km, 52.0° (Epoch: 14 April)

Event Time Altitude Azimuth Distance (km) Brightness Sun altitude
Rises 23:47:29 0° 168° (SSE) 17,172 12.0 -49.7°
Reaches altitude 10° 00:12:35 10° 159° (SSE) 14,855 11.6 -50.5°
Enters shadow 00:19:29 13° 156° (SSE) 13,980 11.5 -50.6°
Exits shadow 00:23:13 14° 154° (SSE) 13,462 11.4 -50.6°
Maximum altitude 00:52:45 24° 123° (ESE) 8,493 10.5 -50.0°
Drops below altitude 10° 01:09:18 10° 80° (E) 6,282 10.3 -49.3°
Sets 01:13:35 0° 67° (ENE) 6,267 10.6 -49.0°
